Beaver Falls, PA

3:47 PM EST on December 06, 2019 (GMT -0500)
Beaver County

Weather History for KBVI - November, 2019

Change the Weather History Date:

Saturday, November 16, 2019

  Actual Average Record
Temperature  
Mean Temperature 36 °F -  
Max Temperature 42 °F 47 °F 68 °F (2006)
Min Temperature 29 °F 35 °F 26 °F (1996)
Degree Days  
Heating Degree Days 30    
Moisture  
Dew Point 19 °F    
Average Humidity 56    
Maximum Humidity 86    
Minimum Humidity 31    
Precipitation  
Precipitation 0.00 in - - ()
Sea Level Pressure  
Sea Level Pressure 30.32 in    
Wind  
Wind Speed 3 mph (NE)    
Max Wind Speed 9 mph    
Max Gust Speed -    
Visibility 10 miles    
Events      
Averages and records for this station are not official NWS values.
T = Trace of Precipitation, MM = Missing Value Source: NWS Daily Summary

Daily Weather History Graph

Daily Weather History Graph

Search for Another Location

Airport or City:

Astronomy

Nov. 16, 2019 Rise Set
Actual Time 7:09 AM EST 5:02 PM EST
Civil Twilight 6:39 AM EST 5:32 PM EST
Nautical Twilight 6:06 AM EST 6:05 PM EST
Astronomical Twilight 5:34 AM EST 6:37 PM EST
Moon 8:33 PM EST (11/16) 11:02 AM EST (11/16)
Length of Visible Light 10h 52m
Length of Day
9h 53m
Waning Gibbous, 82% of the Moon is Illuminated
Nov 16
Waning Gibbous
Nov 19
Last Quarter
Nov 26
New
Dec 4
First Quarter
Dec 12
Full

Hourly Weather History & Observations

Time (EST) Temp. Windchill Dew Point Humidity Pressure Visibility Wind Dir Wind Speed Gust Speed Precip Events Conditions
12:15 AM 32.2 °F - 27.3 °F 82% 30.34 in 10.0 mi Calm Calm - N/A   Overcast
12:16 AM 32.2 °F - 27.3 °F 82% 30.34 in 10.0 mi Calm Calm - N/A   Overcast
12:35 AM 32.2 °F 28.9 °F 27.1 °F 82% 30.34 in 10.0 mi North 3.5 mph - N/A   Overcast
12:55 AM 32.4 °F - 27.1 °F 81% 30.34 in 10.0 mi Calm Calm - N/A   Overcast
12:56 AM 32.4 °F - 27.1 °F 81% 30.34 in 10.0 mi Calm Calm - N/A   Overcast
1:15 AM 32.4 °F - 27.1 °F 81% 30.34 in 10.0 mi Calm Calm - N/A   Overcast
1:16 AM 32.4 °F - 27.1 °F 81% 30.34 in 10.0 mi Calm Calm - N/A   Overcast
1:35 AM 32.5 °F - 27.3 °F 81% 30.34 in 10.0 mi Calm Calm - N/A   Overcast
1:55 AM 32.7 °F - 27.5 °F 81% 30.33 in 10.0 mi Calm Calm - N/A   Overcast
2:15 AM 32.7 °F - 27.5 °F 81% 30.34 in 10.0 mi Calm Calm - N/A   Overcast
2:35 AM 32.9 °F - 27.5 °F 81% 30.33 in 10.0 mi Calm Calm - N/A   Overcast
2:55 AM 32.5 °F - 27.5 °F 82% 30.33 in 10.0 mi Calm Calm - N/A   Overcast
2:56 AM 32.5 °F - 27.5 °F 82% 30.33 in 10.0 mi Calm Calm - N/A   Overcast
3:15 AM 32.2 °F 28.9 °F 27.5 °F 83% 30.33 in 7.0 mi NNW 3.5 mph - N/A   Overcast
3:35 AM 32.2 °F 28.9 °F 28.0 °F 85% 30.32 in 7.0 mi NNW 3.5 mph - N/A   Overcast
3:36 AM 32.4 °F 29.1 °F 28.0 °F 84% 30.32 in 7.0 mi North 3.5 mph - N/A   Overcast
3:55 AM 32.4 °F 29.1 °F 27.9 °F 83% 30.32 in 7.0 mi North 3.5 mph - N/A   Overcast
3:56 AM 32.4 °F 29.1 °F 27.9 °F 83% 30.32 in 7.0 mi North 3.5 mph - N/A   Overcast
4:15 AM 32.4 °F 26.9 °F 28.0 °F 84% 30.32 in 10.0 mi North 5.8 mph - N/A   Overcast
4:16 AM 32.4 °F 27.9 °F 28.0 °F 84% 30.32 in 10.0 mi North 4.6 mph - N/A   Overcast
4:35 AM 32.0 °F 27.5 °F 27.5 °F 83% 30.32 in 10.0 mi North 4.6 mph - N/A   Overcast
4:55 AM 32.0 °F 26.4 °F 27.3 °F 83% 30.32 in 10.0 mi North 5.8 mph - N/A   Overcast
4:56 AM 32.0 °F 27.5 °F 27.1 °F 82% 30.32 in 10.0 mi North 4.6 mph - N/A   Overcast
5:15 AM 31.6 °F 27.0 °F 26.6 °F 82% 30.32 in 10.0 mi North 4.6 mph - N/A   Scattered Clouds
5:16 AM 31.5 °F 26.8 °F 26.6 °F 82% 30.32 in 10.0 mi North 4.6 mph - N/A   Scattered Clouds
5:35 AM 30.7 °F 27.3 °F 26.4 °F 84% 30.33 in 10.0 mi North 3.5 mph - N/A   Scattered Clouds
5:55 AM 30.2 °F 25.4 °F 26.2 °F 85% 30.34 in 10.0 mi North 4.6 mph - N/A   Clear
6:15 AM 30.2 °F 25.4 °F 26.1 °F 85% 30.34 in 10.0 mi North 4.6 mph - N/A   Scattered Clouds
6:16 AM 30.2 °F 25.4 °F 26.1 °F 85% 30.34 in 10.0 mi North 4.6 mph - N/A   Scattered Clouds
6:35 AM 30.2 °F 23.4 °F 25.7 °F 83% 30.35 in 10.0 mi North 6.9 mph - N/A   Mostly Cloudy
6:36 AM 30.2 °F 24.3 °F 25.7 °F 83% 30.35 in 10.0 mi North 5.8 mph - N/A   Mostly Cloudy
6:55 AM 29.8 °F 24.9 °F 25.7 °F 85% 30.36 in 10.0 mi North 4.6 mph - N/A   Scattered Clouds
7:15 AM 29.1 °F - 25.3 °F 86% 30.37 in 10.0 mi Calm Calm - N/A   Scattered Clouds
7:35 AM 29.3 °F - 25.2 °F 85% 30.37 in 10.0 mi Calm Calm - N/A   Scattered Clouds
7:55 AM 30.7 °F 27.3 °F 24.1 °F 76% 30.38 in 10.0 mi NNE 3.5 mph - N/A   Scattered Clouds
7:56 AM 30.9 °F 27.5 °F 23.9 °F 75% 30.38 in 10.0 mi NNE 3.5 mph - N/A   Scattered Clouds
8:15 AM 32.0 °F - 23.2 °F 70% 30.39 in 10.0 mi Calm Calm - N/A   Scattered Clouds
8:16 AM 32.0 °F - 23.2 °F 70% 30.39 in 10.0 mi Calm Calm - N/A   Scattered Clouds
8:55 AM 32.9 °F 27.5 °F 22.5 °F 65% 30.39 in 10.0 mi NNE 5.8 mph - N/A   Clear
8:56 AM 32.9 °F 28.5 °F 22.3 °F 65% 30.39 in 10.0 mi NE 4.6 mph - N/A   Clear
9:16 AM 33.6 °F 29.4 °F 22.5 °F 64% 30.39 in 10.0 mi NE 4.6 mph - N/A   Clear
9:47 AM 33.8 °F 27.7 °F 23.0 °F 65% 30.39 in 10.0 mi NE 6.9 mph - N/A   Clear
9:55 AM 34.7 °F 30.6 °F 23.0 °F 62% 30.39 in 10.0 mi ENE 4.6 mph - N/A   Clear
10:15 AM 35.6 °F 31.7 °F 22.8 °F 60% 30.39 in 10.0 mi NE 4.6 mph - N/A   Clear
10:16 AM 35.6 °F 32.8 °F 22.8 °F 60% 30.39 in 10.0 mi NE 3.5 mph - N/A   Clear
10:35 AM 36.3 °F 33.7 °F 22.8 °F 58% 30.39 in 10.0 mi ENE 3.5 mph - N/A   Clear
10:36 AM 36.1 °F 32.3 °F 22.8 °F 58% 30.39 in 10.0 mi NE 4.6 mph - N/A   Clear
10:55 AM 36.5 °F 33.9 °F 22.8 °F 58% 30.38 in 10.0 mi ENE 3.5 mph - N/A   Clear
11:15 AM 37.8 °F 33.3 °F 22.8 °F 55% 30.37 in 10.0 mi NE 5.8 mph - N/A   Clear
11:35 AM 39.0 °F 34.8 °F 22.1 °F 51% 30.36 in 10.0 mi NNE 5.8 mph - N/A   Clear
11:36 AM 39.0 °F 35.7 °F 21.9 °F 50% 30.36 in 10.0 mi ENE 4.6 mph - N/A   Clear
11:55 AM 39.2 °F 35.9 °F 21.6 °F 49% 30.35 in 10.0 mi NE 4.6 mph - N/A   Clear
11:56 AM 39.2 °F 33.6 °F 21.4 °F 49% 30.35 in 10.0 mi ENE 8.1 mph - N/A   Clear
12:15 PM 40.1 °F 36.1 °F 20.5 °F 45% 30.34 in 10.0 mi NE 5.8 mph - N/A   Clear
12:55 PM 40.6 °F 36.0 °F 20.7 °F 45% 30.31 in 10.0 mi East 6.9 mph - N/A   Clear
12:56 PM 40.8 °F 35.6 °F 20.8 °F 45% 30.31 in 10.0 mi East 8.1 mph - N/A   Clear
1:15 PM 41.9 °F 39.0 °F 20.8 °F 43% 30.30 in 10.0 mi NE 4.6 mph - N/A   Clear
1:35 PM 41.9 °F 37.5 °F 20.5 °F 42% 30.30 in 10.0 mi NE 6.9 mph - N/A   Clear
1:55 PM 41.5 °F 37.8 °F 18.3 °F 39% 30.30 in 10.0 mi East 5.8 mph - N/A   Clear
1:56 PM 41.5 °F 37.1 °F 18.7 °F 40% 30.30 in 10.0 mi ESE 6.9 mph - N/A   Clear
2:15 PM 41.9 °F 39.0 °F 18.1 °F 38% 30.29 in 10.0 mi NE 4.6 mph - N/A   Clear
2:16 PM 41.9 °F 39.0 °F 18.1 °F 38% 30.29 in 10.0 mi NE 4.6 mph - N/A   Clear
2:35 PM 42.3 °F 40.5 °F 17.8 °F 37% 30.29 in 10.0 mi East 3.5 mph - N/A   Clear
2:55 PM 41.9 °F 40.0 °F 17.1 °F 37% 30.28 in 10.0 mi ESE 3.5 mph - N/A   Clear
2:56 PM 41.9 °F - 17.2 °F 37% 30.28 in 10.0 mi Calm Calm - N/A   Clear
3:15 PM 41.9 °F 39.0 °F 16.2 °F 35% 30.28 in 7.0 mi NE 4.6 mph - N/A   Clear
3:16 PM 41.9 °F 39.0 °F 15.8 °F 35% 30.28 in 7.0 mi NE 4.6 mph - N/A   Clear
3:35 PM 41.5 °F 37.8 °F 15.6 °F 35% 30.29 in 10.0 mi ENE 5.8 mph - N/A   Clear
3:47 PM 41.0 °F 38.0 °F 15.8 °F 36% 30.29 in 10.0 mi East 4.6 mph - N/A   Clear
3:55 PM 41.0 °F 38.0 °F 14.9 °F 35% 30.29 in 10.0 mi ENE 4.6 mph - N/A   Clear
3:56 PM 41.0 °F 39.0 °F 14.9 °F 35% 30.29 in 10.0 mi ENE 3.5 mph - N/A   Clear
4:15 PM 40.3 °F 38.2 °F 14.4 °F 35% 30.29 in 10.0 mi ENE 3.5 mph - N/A   Clear
4:16 PM 40.3 °F 38.2 °F 14.4 °F 35% 30.29 in 10.0 mi ENE 3.5 mph - N/A   Clear
4:35 PM 39.6 °F 37.4 °F 14.0 °F 35% 30.29 in 10.0 mi East 3.5 mph - N/A   Clear
4:47 PM 41.0 °F 38.0 °F 12.2 °F 31% 30.29 in 10.0 mi East 4.6 mph - N/A   Clear
4:55 PM 38.7 °F 36.3 °F 12.0 °F 34% 30.29 in 10.0 mi ENE 3.5 mph - N/A   Clear
4:56 PM 38.5 °F 36.1 °F 12.0 °F 34% 30.29 in 10.0 mi ENE 3.5 mph - N/A   Clear
5:15 PM 37.8 °F 35.3 °F 10.6 °F 33% 30.29 in 10.0 mi ENE 3.5 mph - N/A   Clear
5:35 PM 37.2 °F 34.7 °F 9.5 °F 32% 30.29 in 10.0 mi ENE 3.5 mph - N/A   Clear
5:55 PM 36.7 °F - 8.6 °F 31% 30.29 in 10.0 mi Calm Calm - N/A   Clear
6:15 PM 36.1 °F 33.5 °F 8.6 °F 32% 30.30 in 10.0 mi ENE 3.5 mph - N/A   Clear
6:16 PM 36.1 °F 33.5 °F 8.6 °F 32% 30.29 in 10.0 mi ENE 3.5 mph - N/A   Clear
6:35 PM 35.6 °F 32.8 °F 8.1 °F 32% 30.29 in 10.0 mi ENE 3.5 mph - N/A   Clear
6:55 PM 35.1 °F - 7.9 °F 32% 30.30 in 10.0 mi Calm Calm - N/A   Clear
7:16 PM 34.7 °F 31.8 °F 7.7 °F 32% 30.29 in 10.0 mi ENE 3.5 mph - N/A   Clear
7:35 PM 34.2 °F 31.2 °F 8.1 °F 34% 30.29 in 10.0 mi East 3.5 mph - N/A   Clear
7:36 PM 34.2 °F 30.0 °F 7.9 °F 33% 30.29 in 10.0 mi East 4.6 mph - N/A   Clear
7:55 PM 34.3 °F 29.2 °F 7.7 °F 33% 30.28 in 10.0 mi East 5.8 mph - N/A   Clear
8:15 PM 34.0 °F 31.0 °F 7.7 °F 33% 30.28 in 10.0 mi ENE 3.5 mph - N/A   Clear
8:16 PM 34.0 °F 29.8 °F 7.7 °F 33% 30.28 in 10.0 mi ENE 4.6 mph - N/A   Clear
8:35 PM 33.8 °F 29.6 °F 7.3 °F 33% 30.28 in 10.0 mi East 4.6 mph - N/A   Clear
8:36 PM 33.8 °F 29.6 °F 7.3 °F 33% 30.28 in 10.0 mi East 4.6 mph - N/A   Clear
8:55 PM 33.4 °F 28.1 °F 7.3 °F 34% 30.27 in 10.0 mi East 5.8 mph - N/A   Clear
9:15 PM 32.9 °F 27.5 °F 7.5 °F 35% 30.27 in 10.0 mi East 5.8 mph - N/A   Clear
9:35 PM 32.9 °F 25.9 °F 7.3 °F 34% 30.26 in 10.0 mi East 8.1 mph - N/A   Clear
9:36 PM 32.9 °F 26.7 °F 7.3 °F 34% 30.26 in 10.0 mi East 6.9 mph - N/A   Clear
9:55 PM 32.7 °F 26.4 °F 7.7 °F 35% 30.26 in 10.0 mi East 6.9 mph - N/A   Clear
9:56 PM 32.5 °F 26.2 °F 7.7 °F 35% 30.26 in 10.0 mi East 6.9 mph - N/A   Clear
10:35 PM 32.2 °F 24.4 °F 8.1 °F 36% 30.25 in 10.0 mi East 9.2 mph - N/A   Clear
10:55 PM 32.2 °F 26.7 °F 8.1 °F 36% 30.24 in 10.0 mi East 5.8 mph - N/A   Clear
10:56 PM 32.0 °F 25.6 °F 8.2 °F 37% 30.24 in 10.0 mi ESE 6.9 mph - N/A   Clear
11:15 PM 32.0 °F 26.4 °F 8.4 °F 37% 30.23 in 10.0 mi East 5.8 mph - N/A   Clear
11:35 PM 32.0 °F 26.4 °F 8.2 °F 37% 30.23 in 10.0 mi East 5.8 mph - N/A   Clear
11:55 PM 31.6 °F 26.0 °F 8.2 °F 38% 30.22 in 10.0 mi East 5.8 mph - N/A   Clear
11:56 PM 31.6 °F 26.0 °F 8.2 °F 38% 30.22 in 10.0 mi East 5.8 mph - N/A   Clear